[Date Prev][Date Next][Thread Prev][Thread Next] - [Date Index][Thread Index][Author Index]

2 Line ISS Keps 12-15



ISS
1 25544U 98067A   05349.33145823  .00016005  00000-0  11834-3 0  9486
2 25544 051.6456 052.5078 0010525 042.3953 047.5578 15.73086218404190
----
Via the sarex mailing list at AMSAT.ORG courtesy of AMSAT-NA.
To unsubscribe, send "unsubscribe sarex" to Majordomo@amsat.org



AMSAT Top AMSAT Home